| time (UTC) | temp F | wind direction | speed MPH | gust MPH | rain 1hr in | rain 24hr in | rain mn in | humidity % | barometer mb |
| 20260902161056 | 69 | 200 | 6.0 | 12.0 | 0.00 | 0.05 | 0.05 | 69 | 1019.3 |
| 20260902154555 | 69 | 229 | 5.0 | 10.0 | 0.00 | 0.05 | 0.05 | 70 | 1019.4 |
| 20260902154055 | 69 | 247 | 4.0 | 8.0 | 0.00 | 0.05 | 0.05 | 70 | 1019.5 |
| 20260902153555 | 69 | 234 | 4.0 | 10.0 | 0.00 | 0.05 | 0.05 | 70 | 1019.5 |
| 20260902153056 | 69 | 233 | 3.0 | 8.0 | 0.00 | 0.05 | 0.05 | 72 | 1019.5 |
| 20260902152555 | 69 | 202 | 5.0 | 10.0 | 0.00 | 0.05 | 0.05 | 73 | 1019.5 |
| 20260902152056 | 69 | 275 | 4.0 | 8.0 | 0.00 | 0.05 | 0.05 | 73 | 1019.5 |
| 20260902140054 | 71 | 226 | 6.0 | 13.0 | 0.00 | 0.05 | 0.05 | 65 | 1019.8 |
| 20260902135555 | 71 | 201 | 4.0 | 12.0 | 0.00 | 0.05 | 0.05 | 65 | 1019.7 |
| 20260902135055 | 71 | 243 | 8.0 | 13.0 | 0.00 | 0.05 | 0.05 | 64 | 1019.8 |
| 20260902134554 | 72 | 236 | 9.0 | 16.0 | 0.00 | 0.05 | 0.05 | 65 | 1019.8 |
| 20260902134056 | 71 | 244 | 4.0 | 12.0 | 0.00 | 0.05 | 0.05 | 67 | 1019.7 |
| 20260902133555 | 71 | 245 | 7.0 | 13.0 | 0.00 | 0.05 | 0.05 | 68 | 1019.8 |
| 20260902132055 | 70 | 263 | 8.0 | 12.0 | 0.00 | 0.05 | 0.05 | 71 | 1019.9 |
| 20260902131555 | 70 | 263 | 5.0 | 9.0 | 0.00 | 0.05 | 0.05 | 72 | 1019.9 |
| 20260902131055 | 69 | 244 | 3.0 | 9.0 | 0.00 | 0.05 | 0.05 | 74 | 1019.9 |
| 20260902125056 | 69 | 236 | 5.0 | 8.0 | 0.00 | 0.05 | 0.05 | 73 | 1019.9 |
| 20260902124056 | 69 | 267 | 3.0 | 10.0 | 0.00 | 0.05 | 0.05 | 73 | 1019.8 |
| 20260902123555 | 69 | 254 | 3.0 | 8.0 | 0.00 | 0.05 | 0.05 | 73 | 1019.9 |
| 20260902123055 | 69 | 288 | 5.0 | 9.0 | 0.00 | 0.05 | 0.05 | 72 | 1019.9 |
| 20260902122554 | 69 | 253 | 3.0 | 9.0 | 0.00 | 0.05 | 0.05 | 72 | 1019.9 |
| 20260902121055 | 69 | 281 | 5.0 | 12.0 | 0.00 | 0.05 | 0.05 | 72 | 1019.9 |
| 20260902115554 | 69 | 281 | 5.0 | 14.0 | 0.00 | 0.05 | 0.05 | 71 | 1019.9 |
| 20260902112554 | 68 | 287 | 5.0 | 12.0 | 0.00 | 0.05 | 0.05 | 81 | 1019.9 |
| 20260902112056 | 68 | 249 | 5.0 | 9.0 | 0.00 | 0.05 | 0.05 | 81 | 1020.0 |
| 20260902110054 | 66 | 232 | 3.0 | 5.0 | 0.05 | 0.05 | 0.05 | 88 | 1020.1 |
| 20260902105554 | 66 | 232 | 2.0 | 5.0 | 0.05 | 0.05 | 0.05 | 88 | 1020.0 |
| 20260902105055 | 66 | 232 | 3.0 | 7.0 | 0.05 | 0.05 | 0.05 | 88 | 1020.0 |
| 20260902104554 | 66 | 232 | 3.0 | 6.0 | 0.05 | 0.05 | 0.05 | 88 | 1020.1 |
| 20260902104054 | 66 | 227 | 2.0 | 3.0 | 0.05 | 0.05 | 0.05 | 88 | 1020.2 |
| 20260902103554 | 65 | 227 | 2.0 | 5.0 | 0.05 | 0.05 | 0.05 | 87 | 1020.1 |
| 20260902103056 | 66 | 227 | 2.0 | 5.0 | 0.05 | 0.05 | 0.05 | 87 | 1020.2 |
| 20260902100054 | 68 | 227 | 6.0 | 13.0 | 0.00 | 0.00 | 0.00 | 80 | 1020.0 |
| 20260902095554 | 69 | 255 | 5.0 | 9.0 | 0.00 | 0.00 | 0.00 | 80 | 1019.9 |
| 20260902095055 | 69 | 259 | 3.0 | 7.0 | 0.00 | 0.00 | 0.00 | 81 | 1019.9 |
| 20260902091055 | 68 | 242 | 7.0 | 12.0 | 0.00 | 0.00 | 0.00 | 82 | 1019.9 |
| 20260902084553 | 67 | 245 | 6.0 | 10.0 | 0.00 | 0.00 | 0.00 | 84 | 1019.9 |
| 20260902084054 | 67 | 262 | 5.0 | 9.0 | 0.00 | 0.00 | 0.00 | 85 | 1019.9 |
| 20260902075054 | 65 | 215 | 3.0 | 8.0 | 0.00 | 0.00 | 0.00 | 87 | 1019.4 |
| 20260902074554 | 65 | 229 | 3.0 | 7.0 | 0.00 | 0.00 | 0.00 | 88 | 1019.4 |
| 20260902074055 | 65 | 242 | 4.0 | 7.0 | 0.00 | 0.00 | 0.00 | 88 | 1019.4 |
| 20260902073555 | 65 | 225 | 5.0 | 9.0 | 0.00 | 0.00 | 0.00 | 88 | 1019.4 |
| 20260902073054 | 64 | 203 | 4.0 | 8.0 | 0.00 | 0.00 | 0.00 | 88 | 1019.4 |
| 20260902072554 | 64 | 233 | 5.0 | 9.0 | 0.00 | 0.00 | 0.00 | 89 | 1019.3 |
| 20260902072054 | 64 | 236 | 5.0 | 10.0 | 0.00 | 0.00 | 0.00 | 88 | 1019.2 |
| 20260902071554 | 64 | 241 | 4.0 | 9.0 | 0.00 | 0.00 | 0.00 | 88 | 1019.2 |
| 20260902071055 | 64 | 235 | 4.0 | 10.0 | 0.00 | 0.00 | 0.00 | 87 | 1019.1 |
| 20260902070054 | 64 | 223 | 3.0 | 8.0 | 0.00 | 0.00 | 0.00 | 88 | 1019.1 |
| 20260902065554 | 64 | 229 | 4.0 | 9.0 | 0.00 | 0.00 | 0.00 | 88 | 1019.0 |
| 20260902062554 | 62 | 209 | 5.0 | 9.0 | 0.00 | 0.00 | 0.00 | 91 | 1019.0 |
| 20260902062054 | 61 | 205 | 4.0 | 9.0 | 0.00 | 0.00 | 0.00 | 91 | 1018.9 |
| 20260902061554 | 61 | 212 | 4.0 | 10.0 | 0.00 | 0.00 | 0.00 | 91 | 1018.9 |
| 20260902061056 | 61 | 210 | 3.0 | 7.0 | 0.00 | 0.00 | 0.00 | 91 | 1018.9 |
| 20260902052054 | 61 | 209 | 3.0 | 9.0 | 0.00 | 0.00 | 0.00 | 90 | 1018.9 |
| 20260902050053 | 61 | 200 | 5.0 | 7.0 | 0.00 | 0.00 | 0.00 | 90 | 1018.7 |
| 20260902045554 | 61 | 201 | 3.0 | 7.0 | 0.00 | 0.00 | 0.00 | 90 | 1018.7 |
| 20260902042054 | 61 | 200 | 3.0 | 6.0 | 0.00 | 0.00 | 0.00 | 89 | 1018.7 |
| 20260902041554 | 61 | 198 | 3.0 | 7.0 | 0.00 | 0.00 | 0.00 | 89 | 1018.8 |
| 20260902041055 | 61 | 193 | 3.0 | 9.0 | 0.00 | 0.00 | 0.00 | 89 | 1018.7 |
| 20260902035054 | 62 | 205 | 2.0 | 5.0 | 0.00 | 0.00 | 0.00 | 88 | 1018.7 |
| 20260902034554 | 62 | 205 | 2.0 | 6.0 | 0.00 | 0.00 | 0.00 | 88 | 1018.8 |
| 20260902034055 | 62 | 205 | 3.0 | 7.0 | 0.00 | 0.00 | 0.00 | 88 | 1018.9 |
| 20260902033053 | 62 | 202 | 3.0 | 7.0 | 0.00 | 0.00 | 0.00 | 88 | 1018.9 |
| 20260902032554 | 62 | 202 | 5.0 | 7.0 | 0.00 | 0.00 | 0.00 | 88 | 1018.9 |
| 20260902031553 | 62 | 201 | 2.0 | 7.0 | 0.00 | 0.00 | 0.00 | 87 | 1018.9 |
| 20260902031054 | 62 | 200 | 3.0 | 7.0 | 0.00 | 0.00 | 0.00 | 87 | 1018.9 |
| 20260902024054 | 62 | 201 | 2.0 | 7.0 | 0.00 | 0.00 | 0.00 | 86 | 1019.1 |
| 20260902022554 | 62 | 218 | 1.0 | 3.0 | 0.00 | 0.00 | 0.00 | 86 | 1019.2 |
| 20260902022054 | 62 | 219 | 3.0 | 8.0 | 0.00 | 0.00 | 0.00 | 86 | 1019.3 |
| 20260902013553 | 62 | 217 | 3.0 | 6.0 | 0.00 | 0.00 | 0.00 | 85 | 1019.3 |
| 20260902012054 | 62 | 219 | 2.0 | 6.0 | 0.00 | 0.00 | 0.00 | 86 | 1019.4 |
| 20260902011553 | 62 | 219 | 3.0 | 6.0 | 0.00 | 0.00 | 0.00 | 86 | 1019.4 |
| 20260902004553 | 61 | 227 | 3.0 | 6.0 | 0.00 | 0.00 | 0.00 | 85 | 1019.5 |
| 20260902004054 | 61 | 229 | 2.0 | 5.0 | 0.00 | 0.00 | 0.00 | 85 | 1019.4 |
| 20260902003554 | 61 | 231 | 3.0 | 5.0 | 0.00 | 0.00 | 0.00 | 85 | 1019.5 |
| 20260902003054 | 61 | 232 | 2.0 | 3.0 | 0.00 | 0.00 | 0.00 | 85 | 1019.5 |
| 20260902002553 | 61 | 232 | 2.0 | 5.0 | 0.00 | 0.00 | 0.00 | 85 | 1019.5 |
| 20260902002054 | 61 | 233 | 3.0 | 5.0 | 0.00 | 0.00 | 0.00 | 85 | 1019.5 |
| 20260902001553 | 61 | 233 | 3.0 | 5.0 | 0.00 | 0.00 | 0.00 | 85 | 1019.5 |
| 20260902001054 | 61 | 234 | 1.0 | 5.0 | 0.00 | 0.00 | 0.00 | 84 | 1019.5 |
| 20260902000054 | 61 | 234 | 1.0 | 3.0 | 0.00 | 0.00 | 0.00 | 84 | 1019.7 |
| 20260901235553 | 61 | 234 | 1.0 | 3.0 | 0.00 | 0.00 | 0.00 | 84 | 1019.7 |
| 20260901235054 | 61 | 234 | 2.0 | 6.0 | 0.00 | 0.00 | 0.00 | 84 | 1019.7 |
| 20260901231553 | 61 | 242 | 1.0 | 3.0 | 0.00 | 0.00 | 0.00 | 82 | 1019.9 |
| 20260901231054 | 61 | 242 | 1.0 | 3.0 | 0.00 | 0.00 | 0.00 | 82 | 1019.9 |
| 20260901224054 | 61 | 248 | 0.0 | 3.0 | 0.00 | 0.00 | 0.00 | 83 | 1020.1 |
| 20260901223553 | 61 | 248 | 2.0 | 3.0 | 0.00 | 0.00 | 0.00 | 83 | 1020.1 |
| 20260901223053 | 61 | 248 | 0.0 | 0.0 | 0.00 | 0.00 | 0.00 | 82 | 1020.1 |
| 20260901222553 | 61 | 248 | 0.0 | 0.0 | 0.00 | 0.00 | 0.00 | 82 | 1020.1 |
| 20260901222054 | 61 | 248 | 0.0 | 1.0 | 0.00 | 0.00 | 0.00 | 82 | 1020.0 |
| 20260901221553 | 61 | 248 | 0.0 | 2.0 | 0.00 | 0.00 | 0.00 | 83 | 1019.9 |
| 20260901221053 | 61 | 248 | 1.0 | 3.0 | 0.00 | 0.00 | 0.00 | 83 | 1020.0 |
| 20260901213055 | 61 | 248 | 0.0 | 0.0 | 0.00 | 0.03 | 0.00 | 82 | 1020.0 |
| 20260901212553 | 62 | 248 | 0.0 | 0.0 | 0.00 | 0.06 | 0.00 | 81 | 1020.0 |
| 20260901205054 | 62 | 248 | 0.0 | 0.0 | 0.00 | 0.14 | 0.00 | 80 | 1020.5 |
| 20260901204553 | 62 | 248 | 0.0 | 0.0 | 0.00 | 0.14 | 0.00 | 80 | 1020.6 |
| 20260901204053 | 62 | 248 | 0.0 | 0.0 | 0.00 | 0.14 | 0.00 | 80 | 1020.6 |
| 20260901203553 | 62 | 248 | 0.0 | 0.0 | 0.00 | 0.14 | 0.00 | 80 | 1020.7 |
| 20260901203053 | 62 | 248 | 0.0 | 0.0 | 0.00 | 0.14 | 0.00 | 80 | 1020.6 |
| 20260901202553 | 62 | 248 | 0.0 | 0.0 | 0.00 | 0.14 | 0.00 | 80 | 1020.7 |
| 20260901195054 | 63 | 248 | 0.0 | 0.0 | 0.00 | 0.14 | 0.00 | 78 | 1020.5 |
| 20260901194553 | 63 | 248 | 0.0 | 0.0 | 0.00 | 0.14 | 0.00 | 77 | 1020.5 |
| 20260901193553 | 63 | 248 | 0.0 | 2.0 | 0.00 | 0.14 | 0.00 | 77 | 1020.5 |
| 20260901190053 | 64 | 248 | 0.0 | 0.0 | 0.00 | 0.14 | 0.00 | 74 | 1020.0 |
| 20260901183553 | 65 | 248 | 0.0 | 2.0 | 0.00 | 0.14 | 0.00 | 72 | 1020.0 |
| 20260901183054 | 65 | 248 | 1.0 | 3.0 | 0.00 | 0.14 | 0.00 | 72 | 1020.0 |
| 20260901181053 | 66 | 300 | 1.0 | 5.0 | 0.00 | 0.14 | 0.00 | 70 | 1020.0 |
| 20260901173553 | 68 | 269 | 4.0 | 6.0 | 0.00 | 0.14 | 0.00 | 67 | 1020.3 |
| 20260901173053 | 68 | 259 | 2.0 | 7.0 | 0.00 | 0.14 | 0.00 | 67 | 1020.4 |
| 20260901165552 | 68 | 302 | 5.0 | 7.0 | 0.00 | 0.14 | 0.00 | 66 | 1020.5 |
| 20260901164552 | 68 | 311 | 5.0 | 10.0 | 0.00 | 0.14 | 0.00 | 65 | 1020.5 |
| 20260901164053 | 69 | 304 | 4.0 | 8.0 | 0.00 | 0.14 | 0.00 | 65 | 1020.5 |
| 20260901163552 | 69 | 304 | 2.0 | 8.0 | 0.00 | 0.14 | 0.00 | 65 | 1020.5 |
| 20260901163054 | 69 | 308 | 5.0 | 9.0 | 0.00 | 0.14 | 0.00 | 64 | 1020.5 |
| 20260901162552 | 69 | 308 | 3.0 | 8.0 | 0.00 | 0.14 | 0.00 | 65 | 1020.5 |
| 20260901162053 | 69 | 303 | 7.0 | 12.0 | 0.00 | 0.14 | 0.00 | 63 | 1020.5 |